Regional Weather Roundup
Issued by NWS

Home | Current Version | Previous Version | Text Only | Print | Product List | Glossary Off
Versions: 1 2 3 4 5 6 7 8 9 10 11 12 13 14 15 16 17 18 19 20 21 22 23 24 25 26 27 28 29 30 31 32 33 34 35 36 37 38 39 40 41 42 43 44 45 46 47 48 49 50

000
ASUS43 KMKX 241910
RWRWI

WISCONSIN REGIONAL WEATHER ROUNDUP
NATIONAL WEATHER SERVICE MILWAUKEE/SULLIVAN WI
100 PM CST TUE JAN 24 2017

NOTE: "FAIR" INDICATES FEW OR NO CLOUDS BELOW 12,000 FEET WITH NO
SIGNIFICANT WEATHER AND/OR OBSTRUCTIONS TO VISIBILITY.

WIZ001-002-006>008-014>016-023>028-242000-
NORTHWEST WISCONSIN

CITY           SKY/WX    TMP DP  RH WIND       PRES   REMARKS
SUPERIOR ARPT  CLOUDY    33  26  73 CALM      29.84F
ASHLAND        CLOUDY    33  26  75 W3        29.84F
HAYWARD        CLOUDY    33  27  78 N5        29.81F WCI  29
SIREN          CLOUDY    32  27  82 CALM      29.83F
CUMBERLAND     CLOUDY    32  27  80 E3        29.82R
RICE LAKE      CLOUDY    33  28  82 NE7       29.83F WCI  27
CHETEK         CLOUDY    33  29  83 CALM      29.83S
LADYSMITH      CLOUDY    34  30  86 CALM      29.83F
EAU CLAIRE     CLOUDY    34  28  79 CALM      29.83F
MENOMONIE        N/A    N/A N/A N/A MISG        N/A
NEW RICHMOND   CLOUDY    33  28  82 CALM      29.84S
OSCEOLA        CLOUDY    33  27  81 CALM      29.88R
$$

WIZ003>005-009-010-017-018-242000-
NORTH CENTRAL WISCONSIN

CITY           SKY/WX    TMP DP  RH WIND       PRES   REMARKS
MANITOWISH WTR CLOUDY    33  32  95 CALM      29.78F
ARBOR VITAE    CLOUDY    37  32  85 CALM      29.78F
WOODRUFF       CLOUDY    37  32  85 CALM      29.78F
RHINELANDER    CLOUDY    37  31  78 W8        29.78F WCI  31
EAGLE RIVER    CLOUDY    34  32  91 N3        29.78F
LAND O LAKES   CLOUDY    34  32  91 NW6       29.80F WCI  29
PHILLIPS       CLOUDY    33  30  88 NW3       29.79F
TOMAHAWK       CLOUDY    34  29  82 CALM      29.80F
MEDFORD        CLOUDY    33  29  86 CALM      29.79F
MERRILL        CLOUDY    36  30  80 CALM        N/A
$$

WIZ029-030-035-036-043>047-242000-
CENTRAL WISCONSIN

CITY           SKY/WX    TMP DP  RH WIND       PRES   REMARKS
WAUSAU         CLOUDY    34  29  82 SW5       29.79F WCI  30
MOSINEE        CLOUDY    36  32  87 W3        29.82F
MARSHFIELD     CLOUDY    34  28  79 W3        29.80F
STEVENS POINT  CLOUDY    34  29  83 CALM      29.82F
WAUPACA        CLOUDY    38  32  78 CALM      29.83F
WAUTOMA        NOT AVBL
WISC RAPIDS    CLOUDY    37  30  75 CALM      29.83F
CAMP DOUGLAS   CLOUDY    36  30  80 CALM      29.82F
$$

WIZ011>013-019>022-031-037>040-048>050-242000-
NORTHEAST WISCONSIN

CITY           SKY/WX    TMP DP  RH WIND       PRES   REMARKS
ANTIGO         CLOUDY    34  31  90 N5        29.78F WCI  30
SHAWANO        CLOUDY    41  34  75 W3        29.80F
OCONTO         CLOUDY    38  34  85 CALM      29.80F
STURGEON BAY   CLOUDY    37  37 100 N7        29.80F WCI  32
GREEN BAY      CLOUDY    43  36  76 NW6       29.80F
MANITOWOC      CLOUDY    39  35  86 MISG      29.81F
APPLETON       CLOUDY    37  36  93 N3        29.80F
CLINTONVILLE   CLOUDY    37  32  81 W5        29.81F WCI  34
OSHKOSH        CLOUDY    38  33  82 W6        29.81F WCI  33
$$

WIZ032>034-041-042-053>061-242000-
SOUTHWEST WISCONSIN

CITY           SKY/WX    TMP DP  RH WIND       PRES   REMARKS
LA CROSSE      CLOUDY    37  30  75 N5        29.83F WCI  33
SPARTA         CLOUDY    34  32  92 CALM      29.84F
VIROQUA        CLOUDY    34  32  93 CALM      29.81F
BOSCOBEL       CLOUDY    38  31  76 CALM      29.83F
PRAIRIE DU CHI CLOUDY    35  30  82 E6        29.83F WCI  30
PLATTEVILLE    CLOUDY    35  33  95 SE6       29.82F WCI  30
$$

WIZ056-057-062-063-064-067-068-242000-
SOUTH CENTRAL WISCONSIN

CITY           SKY/WX    TMP DP  RH WIND       PRES   REMARKS
REEDSBURG      CLOUDY    35  31  84 CALM      29.83F
BARABOO/DELLS  CLOUDY    35  30  81 CALM      29.82F
LONE ROCK      CLOUDY    37  30  75 E5        29.83F WCI  33
MINERAL POINT  CLOUDY    36  34  93 E5        29.81F WCI  32
MADISON        CLOUDY    36  31  82 CALM      29.84F
MIDDLETON      CLOUDY    38  33  82 CALM      29.84F
WATERTOWN      CLOUDY    36  33  89 NW5       29.83F WCI  32
MONROE         CLOUDY    34  32  93 E3        29.82F
JANESVILLE     CLOUDY    36  34  93 SW3       29.84F
$$

WIZ051-052-058>065-066-070>072-242000-
SOUTHEAST WISCONSIN

CITY           SKY/WX    TMP DP  RH WIND       PRES   REMARKS
MILWAUKEE      CLOUDY    38  32  79 VRB5      29.84F WCI  34
WAUKESHA       CLOUDY    36  32  87 W6        29.84F WCI  31
MILWAUKEE/TIMM CLOUDY    37  32  81 NW6       29.84F WCI  33
RACINE         CLOUDY    37  32  82 VRB3      29.85F
KENOSHA        CLOUDY    37  33  85 W7        29.84F WCI  32
FOND DU LAC    CLOUDY    39  31  72 N6        29.82F WCI  35
SHEBOYGAN      CLOUDY    39  34  82 NW6       29.81F WCI  35
WEST BEND      CLOUDY    36  34  93 NW6       29.82F WCI  31
JUNEAU         CLOUDY    36  32  87 W3        29.84S
$$

LSZ147-162-242000-
LAKE SUPERIOR

STATION/POSITION TIME  TEMP    WIND        PRES    WAVE
                       AIR SEA DIR/SP/G            HT/PER
                 (UTC) (F)     (DEG/KT/KT) (MB)    (FT/S)
DEVILS ISLAND    1900   33     250/  9/ 10 1011.1F
PORT WING        1840   33     260/  5/  9 1011.2F
SAXON HARBOR     1840   35     360/  1/  2 1010.5F
$$

LMZ867-665-643>646-242000-
LAKE MICHIGAN

STATION/POSITION TIME  TEMP    WIND        PRES    WAVE
                       AIR SEA DIR/SP/G            HT/PER
                 (UTC) (F)     (DEG/KT/KT) (MB)    (FT/S)
NORTHPORT PIER   1840   36     300/  9/ 11 1008.8F
SISTER BAY       1820   35        CALM       N/A
KEWAUNEE LAKESHO 1848   39     350/  7/  9 1008.9F
SHEBOYGAN LAKESH 1900   38     350/  6/  7 1009.7F
PORT WASHINGTON  1840   39     280/  4/  7 1011.2F
KENOSHA   LAKESH 1900   36     310/  3/  7 1010.8
$$

TC  - TEMPERATURE IN CELSIUS
VSB - VISIBILITY IN STATUTE MILES
WCI - WIND CHILL INDEX
HX  - HEAT INDEX





USA.gov is the U.S. government's official web portal to all federal, state and local government web resources and services.